EN

Hourly Weather Almassora

Today, 26 January, Tuesday

Time Temperature Precipitation Wind Pressure Humidity
00:00 +11°C° 0 mm 3 mps 754 mmHg 73%
01:00 +10°C° 0 mm 3 mps 754 mmHg 73%
02:00 +10°C° 0 mm 3 mps 755 mmHg 73%
03:00 +10°C° 0 mm 3 mps 756 mmHg 73%
04:00 +10°C° 0 mm 3 mps 756 mmHg 76%
05:00 +10°C° 0 mm 3 mps 756 mmHg 78%
06:00 +10°C° 0 mm 4 mps 757 mmHg 81%
07:00 +10°C° 0 mm 4 mps 757 mmHg 80%
08:00 +11°C° 0 mm 4 mps 757 mmHg 80%
09:00 +11°C° 0 mm 4 mps 758 mmHg 79%
10:00 +13°C° 0 mm 4 mps 758 mmHg 74%
11:00 +14°C° 0 mm 4 mps 758 mmHg 69%
12:00 +15°C° 0 mm 4 mps 758 mmHg 65%
13:00 +17°C° 0 mm 3 mps 757 mmHg 64%
14:00 +17°C° 0 mm 3 mps 757 mmHg 64%
15:00 +17°C° 0 mm 2 mps 756 mmHg 63%
16:00 +16°C° 0 mm 2 mps 756 mmHg 69%
17:00 +15°C° 0 mm 2 mps 757 mmHg 74%
18:00 +14°C° 0 mm 2 mps 757 mmHg 79%
19:00 +14°C° 0 mm 1 mps 757 mmHg 79%
20:00 +14°C° 0 mm 1 mps 757 mmHg 78%
21:00 +14°C° 0 mm 1 mps 757 mmHg 78%
22:00 +14°C° 0 mm 2 mps 757 mmHg 78%
23:00 +14°C° 0 mm 2 mps 757 mmHg 77%

Tomorrow, 27 January, Wednesday

Time Temperature Precipitation Wind Pressure Humidity
00:00 +14°C° 0 mm 2 mps 757 mmHg 77%
01:00 +14°C° 0 mm 2 mps 757 mmHg 77%
02:00 +14°C° 0 mm 2 mps 757 mmHg 78%
03:00 +14°C° 0 mm 2 mps 757 mmHg 78%
04:00 +14°C° 0 mm 2 mps 757 mmHg 79%
05:00 +14°C° 0 mm 1 mps 757 mmHg 79%
06:00 +14°C° 0 mm 1 mps 757 mmHg 79%
07:00 +15°C° 0 mm 2 mps 757 mmHg 76%
08:00 +16°C° 0 mm 2 mps 757 mmHg 72%
09:00 +17°C° 0 mm 2 mps 758 mmHg 68%
10:00 +18°C° 0 mm 3 mps 758 mmHg 62%
11:00 +20°C° 0 mm 3 mps 758 mmHg 56%
12:00 +21°C° 0 mm 3 mps 758 mmHg 50%
13:00 +21°C° 0 mm 3 mps 757 mmHg 50%
14:00 +22°C° 0 mm 3 mps 757 mmHg 50%
15:00 +23°C° 0 mm 2 mps 756 mmHg 49%
16:00 +20°C° 0 mm 2 mps 757 mmHg 54%
17:00 +19°C° 0 mm 2 mps 757 mmHg 58%
18:00 +18°C° 0 mm 2 mps 757 mmHg 63%
19:00 +18°C° 0 mm 3 mps 758 mmHg 63%
20:00 +17°C° 0 mm 3 mps 758 mmHg 63%
21:00 +17°C° 0 mm 3 mps 759 mmHg 64%
22:00 +17°C° 0 mm 3 mps 759 mmHg 65%
23:00 +16°C° 0 mm 2 mps 759 mmHg 67%

Day after tomorrow, 28 January, Thursday

Time Temperature Precipitation Wind Pressure Humidity
00:00 +16°C° 0 mm 2 mps 759 mmHg 68%
01:00 +15°C° 0 mm 2 mps 759 mmHg 70%
02:00 +15°C° 0 mm 2 mps 759 mmHg 71%
03:00 +15°C° 0 mm 2 mps 759 mmHg 72%
04:00 +14°C° 0 mm 2 mps 758 mmHg 72%
05:00 +14°C° 0 mm 2 mps 758 mmHg 72%
06:00 +14°C° 0 mm 2 mps 758 mmHg 72%
07:00 +15°C° 0 mm 2 mps 758 mmHg 67%
08:00 +16°C° 0 mm 2 mps 759 mmHg 61%
09:00 +17°C° 0 mm 2 mps 759 mmHg 56%
10:00 +19°C° 0 mm 3 mps 759 mmHg 52%
11:00 +21°C° 0 mm 3 mps 759 mmHg 48%
12:00 +22°C° 0 mm 3 mps 758 mmHg 44%
13:00 +24°C° 0 mm 3 mps 758 mmHg 43%
14:00 +24°C° 0 mm 3 mps 757 mmHg 43%
15:00 +24°C° 0 mm 3 mps 756 mmHg 43%
16:00 +23°C° 0 mm 2 mps 757 mmHg 50%
17:00 +20°C° 0 mm 2 mps 757 mmHg 57%
18:00 +18°C° 0 mm 2 mps 757 mmHg 64%
19:00 +18°C° 0 mm 2 mps 757 mmHg 63%
20:00 +18°C° 0 mm 2 mps 757 mmHg 62%
21:00 +17°C° 0 mm 2 mps 757 mmHg 61%
22:00 +17°C° 0 mm 2 mps 757 mmHg 61%
23:00 +17°C° 0 mm 2 mps 757 mmHg 61%

29 January, Friday

Time Temperature Precipitation Wind Pressure Humidity
00:00 +17°C° 0 mm 2 mps 757 mmHg 61%
01:00 +16°C° 0 mm 2 mps 757 mmHg 62%
02:00 +16°C° 0 mm 2 mps 757 mmHg 63%
03:00 +16°C° 0 mm 2 mps 757 mmHg 63%
04:00 +16°C° 0 mm 2 mps 756 mmHg 63%
05:00 +15°C° 0 mm 2 mps 756 mmHg 63%
06:00 +15°C° 0 mm 2 mps 756 mmHg 63%
07:00 +16°C° 0 mm 2 mps 756 mmHg 59%
08:00 +18°C° 0 mm 2 mps 756 mmHg 56%
09:00 +19°C° 0 mm 2 mps 756 mmHg 53%
10:00 +20°C° 0 mm 3 mps 756 mmHg 48%
11:00 +22°C° 0 mm 3 mps 755 mmHg 44%
12:00 +23°C° 0 mm 4 mps 755 mmHg 39%
13:00 +23°C° 0 mm 4 mps 754 mmHg 40%
14:00 +23°C° 0 mm 4 mps 754 mmHg 42%
15:00 +24°C° 0 mm 3 mps 753 mmHg 43%
16:00 +22°C° 0 mm 3 mps 753 mmHg 46%
17:00 +20°C° 0 mm 2 mps 754 mmHg 49%
18:00 +19°C° 0 mm 2 mps 754 mmHg 52%
19:00 +18°C° 0 mm 2 mps 754 mmHg 55%
20:00 +18°C° 0 mm 2 mps 754 mmHg 58%
21:00 +17°C° 0 mm 3 mps 754 mmHg 62%
22:00 +17°C° 0 mm 3 mps 753 mmHg 61%
23:00 +17°C° 0 mm 3 mps 753 mmHg 61%

30 January, Saturday

Time Temperature Precipitation Wind Pressure Humidity
00:00 +17°C° 0 mm 4 mps 753 mmHg 60%
01:00 +15°C° 0 mm 4 mps 752 mmHg 60%
02:00 +15°C° 0 mm 5 mps 751 mmHg 60%
03:00 +15°C° 0 mm 5 mps 750 mmHg 61%
04:00 +15°C° 0 mm 5 mps 750 mmHg 64%
05:00 +14°C° 0 mm 6 mps 749 mmHg 67%
06:00 +14°C° 0 mm 6 mps 748 mmHg 71%
07:00 +15°C° 0 mm 6 mps 748 mmHg 66%
08:00 +16°C° 0 mm 7 mps 748 mmHg 62%
09:00 +16°C° 0 mm 8 mps 748 mmHg 57%
10:00 +17°C° 0 mm 8 mps 748 mmHg 52%
11:00 +18°C° 0 mm 9 mps 748 mmHg 46%
12:00 +18°C° 0 mm 10 mps 748 mmHg 40%
13:00 +18°C° 0 mm 9 mps 748 mmHg 40%
14:00 +19°C° 0 mm 9 mps 748 mmHg 41%
15:00 +20°C° 0 mm 8 mps 748 mmHg 42%
16:00 +18°C° 0 mm 8 mps 748 mmHg 45%
17:00 +17°C° 0 mm 7 mps 749 mmHg 48%
18:00 +16°C° 0 mm 7 mps 749 mmHg 51%
19:00 +15°C° 0 mm 6 mps 750 mmHg 52%
20:00 +15°C° 0 mm 5 mps 751 mmHg 54%
21:00 +14°C° 0 mm 4 mps 751 mmHg 55%
22:00 +14°C° 0 mm 4 mps 752 mmHg 56%
23:00 +13°C° 0 mm 4 mps 752 mmHg 57%

31 January, Sunday

Time Temperature Precipitation Wind Pressure Humidity
00:00 +13°C° 0 mm 4 mps 752 mmHg 57%
01:00 +13°C° 0 mm 4 mps 752 mmHg 56%
02:00 +12°C° 0 mm 4 mps 752 mmHg 55%
03:00 +12°C° 0 mm 4 mps 752 mmHg 54%
04:00 +12°C° 0 mm 4 mps 752 mmHg 51%
05:00 +12°C° 0 mm 3 mps 753 mmHg 48%
06:00 +13°C° 0 mm 3 mps 753 mmHg 45%
07:00 +13°C° 0 mm 3 mps 753 mmHg 43%
08:00 +14°C° 0 mm 3 mps 753 mmHg 42%
09:00 +16°C° 0 mm 3 mps 753 mmHg 40%
10:00 +17°C° 0 mm 3 mps 753 mmHg 38%
11:00 +19°C° 0 mm 4 mps 753 mmHg 36%
12:00 +21°C° 0 mm 4 mps 752 mmHg 35%
13:00 +21°C° 0 mm 4 mps 752 mmHg 35%
14:00 +22°C° 0 mm 5 mps 751 mmHg 36%
15:00 +22°C° 0 mm 5 mps 750 mmHg 36%
16:00 +21°C° 0 mm 5 mps 750 mmHg 39%
17:00 +19°C° 0 mm 5 mps 750 mmHg 41%
18:00 +17°C° 0 mm 6 mps 751 mmHg 44%
19:00 +17°C° 0 mm 6 mps 751 mmHg 44%
20:00 +16°C° 0 mm 6 mps 751 mmHg 45%
21:00 +16°C° 0 mm 7 mps 751 mmHg 46%
22:00 +15°C° 0 mm 6 mps 752 mmHg 46%
23:00 +15°C° 0 mm 6 mps 752 mmHg 47%
Show more